Tracking 30970 objects as of 3-Jul-2025
HD Live streaming from Space Station
objects crossing your sky now

STARLINK-3291

Track STARLINK-3291 now!
10-day predictions
STARLINK-3291 is classified as:


NORAD ID: 50175
Int'l Code: 2021-125V
Perigee: 546.0 km
Apogee: 547.8 km
Inclination: 53.2 °
Period: 95.4 minutes
Semi major axis: 6917 km
RCS: Unknown
Launch date: December 18, 2021
Source: United States (US)
Launch site: AIR FORCE WESTERN TEST RANGE (AFWTR)
Your satellite tracking list
Your tracking list is empty




NASA's NSSDC Master Catalog

Two Line Element Set (TLE):
1 50175U 21125V   25183.71637767 -.00000564  00000-0 -17321-4 0  9997
2 50175  53.2179 291.2980 0001254  93.5689 266.5446 15.08838309198860
Source of the keplerian elements: AFSPC